Temp
61 61 61 61 60 60 61 60 59 58 58 58 58 58 59 59 59 59 59 58 58 59 59 59 59 60 69 77 78 92 78 81 89 92 88 85 82 80 75 77 78 74 75 77 78 78 77
61 61 61 60 60 60 60 59 59 58 58 58 58 58 58 59 59 59 59 58 58 58 59 59 60 58 73 71 92 95 93 93 93 91 88 86 82 83 78 76 74 77 77 77 78 78 79
61 61 60 60 59 59 59 59 58 58 58 58 58 58 58 58 59 59 59 59 58 58 59 59 60 71 81 77 94 96 94 91 93 90 84 87 87 82 80 74 79 77 71 75 76 77 75
61 61 61 60 59 59 59 58 58 58 58 58 58 57 57 57 58 58 59 58 58 58 59 59 59 73 76 91 95 93 95 91 93 93 89 89 88 82 78 80 76 72 73 67 76 76 76
61 61 60 60 59 59 58 58 58 58 58 57 57 57 57 57 57 59 59 58 58 59 59 60 71 75 75 84 86 92 92 86 89 90 90 90 86 79 77 70 69 72 63 65 69 79 75
61 61 60 60 59 59 59 59 58 57 57 57 57 57 57 57 57 60 59 59 60 62 67 79 87 79 82 78 85 88 93 89 84 84 83 82 79 73 74 68 54 59 61 65 65 73 72
60 60 60 59 59 59 59 59 57 57 56 57 57 57 57 57 58 58 65 79 78 76 83 76 78 77 80 86 90 86 88 86 85 81 72 78 70 63 67 69 69 68 65 64 69 74 69
60 59 59 59 59 59 59 59 57 56 56 56 56 56 57 58 59 61 70 78 75 77 71 81 81 80 83 85 77 82 87 78 76 70 75 72 64 69 72 72 68 68 65 63 67 71 68
59 59 59 59 59 58 59 59 57 56 56 55 56 56 57 57 59 67 80 77 83 81 71 74 79 78 78 82 74 75 80 77 73 70 70 66 67 72 70 68 64 65 61 60 59 66 71
59 58 58 58 58 57 57 57 57 57 56 55 55 56 56 57 68 82 77 81 82 79 64 67 73 77 81 80 72 82 82 75 73 67 68 68 71 68 67 66 64 57 67 63 61 59 53
59 58 58 58 57 56 56 56 56 56 56 55 55 56 56 57 78 79 77 81 80 75 47 68 73 85 81 74 75 75 83 77 68 68 68 63 66 64 64 63 66 60 66 63 64 61 59
59 59 58 57 57 56 56 56 56 56 55 55 55 56 59 75 77 77 80 78 75 57 46 63 72 70 71 73 72 77 76 79 76 68 70 68 72 69 66 68 69 68 65 65 67 60 47
58 58 58 57 56 56 56 56 55 55 55 55 55 56 70 79 72 78 77 74 58 51 67 63 65 69 67 66 68 69 67 65 61 56 59 67 66 69 68 63 69 65 58 46 43 46 45
57 57 57 57 57 56 56 56 55 55 55 54 55 54 67 76 78 76 74 66 50 58 63 68 67 66 63 65 66 67 66 63 66 62 59 55 52 64 67 62 57 59 57 44 34 39 42
57 57 57 58 57 56 55 55 55 55 55 54 54 75 76 73 76 75 70 55 54 62 65 64 66 61 62 64 63 64 62 61 61 62 53 52 55 68 66 66 63 58 53 60 46 45 40
57 57 57 58 56 55 55 55 55 55 55 54 75 78 72 75 75 71 64 53 62 66 68 66 58 61 58 60 60 62 61 63 61 63 65 59 47 63 65 67 66 60 64 47 46 33 34
57 57 57 57 56 55 55 55 55 55 55 55 72 72 72 77 73 70 58 60 63 68 68 63 61 60 59 58 60 59 59 62 64 63 65 62 53 53 60 60 57 57 54 55 55 48 37
56 56 56 56 56 55 55 55 55 54 55 60 73 64 75 76 66 66 61 65 54 66 69 65 65 63 59 60 57 58 56 60 65 64 57 59 52 43 51 63 66 62 57 57 40 40 44
55 55 55 55 56 55 55 55 54 54 54 67 72 71 77 73 53 57 64 63 66 65 64 64 61 63 63 59 52 58 59 63 64 62 55 57 49 40 48 57 61 56 59 59 56 45 40
54 54 54 55 56 56 56 55 55 54 54 66 72 51 68 72 72 65 62 61 58 64 63 65 63 64 61 58 61 55 57 62 63 62 53 56 51 46 39 46 54 48 53 55 53 40 42
54 53 54 54 55 55 55 55 54 54 54 66 72 62 65 56 61 65 64 63 60 58 64 65 61 61 58 47 51 54 59 59 63 55 61 56 43 49 51 53 52 49 49 52 50 50 42
53 53 53 54 54 55 55 55 54 54 53 71 64 64 67 63 65 64 55 61 60 61 61 60 57 61 60 55 54 50 56 56 54 61 57 56 40 41 39 48 50 45 49 51 51 52 52
53 53 53 53 54 54 56 54 53 53 55 72 72 71 64 54 60 58 59 61 61 63 62 64 62 59 49 58 62 62 61 60 59 55 52 50 41 34 35 44 40 34 43 49 52 56 55
53 53 53 54 54 54 52 52 54 53 53 70 69 70 43 50 57 58 62 63 62 63 58 63 63 57 63 69 66 62 59 59 58 58 60 45 37 34 32 33 28 50 60 57 53 56 58
53 53 53 54 54 54 51 53 55 54 53 67 71 67 53 37 58 60 61 61 63 63 61 61 64 64 66 62 44 36 42 38 43 58 58 59 38 35 32 34 42 47 53 52 49 48 58
52 53 53 53 53 52 52 54 54 53 54 62 70 70 63 41 49 63 60 62 54 54 56 60 66 68 63 49 39 34 36 41 44 50 56 50 41 39 36 31 28 45 56 61 59 40 53
52 52 52 52 52 52 51 52 52 53 53 60 66 69 65 48 58 62 58 57 63 58 54 57 58 52 61 40 35 34 35 49 40 34 35 37 35 33 35 32 38 53 59 59 36 37 49
51 51 51 52 52 52 51 51 51 51 52 57 64 68 62 54 59 64 64 60 61 60 50 57 53 53 44 36 35 38 35 43 43 48 42 40 36 34 33 32 31 60 57 40 49 54 53
50 50 50 51 51 51 51 51 51 51 52 52 58 65 66 55 59 63 65 68 67 66 59 58 53 55 51 43 38 38 35 36 34 34 51 37 44 41 43 43 55 59 56 57 55 52 51
MSLP
1020.85 1020.49 1020.23 1019.94 1019.51 1019.07 1018.39 1018.20 1017.85 1017.53 1017.30 1017.07 1016.89 1016.72 1016.59 1016.46 1016.69 1016.65 1016.35 1016.34 1016.19 1015.86 1015.89 1015.87 1015.91 1015.73 1015.28 1013.58 1012.27 1011.46 1011.58 1011.15 1010.73 1010.11 1009.65 1008.90 1008.46 1008.12 1007.90 1008.10 1008.14 1008.09 1008.58 1008.84 1009.06 1009.07 1009.08
1020.98 1020.68 1020.53 1020.09 1019.56 1019.12 1018.66 1018.10 1017.75 1017.44 1017.22 1016.99 1016.78 1016.46 1016.41 1016.39 1016.35 1016.30 1016.23 1016.18 1015.97 1015.76 1015.53 1015.89 1016.21 1016.12 1014.80 1012.74 1011.65 1011.45 1011.38 1010.57 1010.23 1009.76 1009.56 1009.34 1009.18 1009.09 1008.79 1008.86 1008.67 1008.81 1008.74 1008.65 1008.67 1008.55 1008.68
1021.22 1020.81 1020.45 1020.02 1019.60 1019.10 1018.68 1018.35 1017.93 1017.51 1017.14 1016.92 1016.66 1016.50 1016.36 1016.26 1016.10 1016.04 1016.05 1015.91 1015.61 1015.45 1015.41 1015.70 1015.89 1015.27 1013.18 1012.26 1011.42 1010.96 1010.92 1010.78 1010.53 1010.27 1009.86 1009.86 1009.71 1009.29 1009.35 1009.04 1009.23 1008.91 1008.58 1008.10 1008.23 1008.35 1008.52
1021.35 1020.91 1020.50 1020.10 1019.68 1019.26 1018.88 1018.40 1017.92 1017.54 1017.29 1017.09 1016.78 1016.51 1016.35 1016.14 1015.91 1015.72 1015.52 1015.45 1015.41 1015.35 1015.18 1015.56 1015.92 1014.90 1012.87 1011.85 1011.38 1011.01 1010.57 1010.49 1010.56 1010.22 1010.07 1010.13 1009.94 1009.58 1009.45 1009.42 1009.13 1008.51 1008.07 1007.37 1007.58 1008.05 1008.29
1021.21 1021.01 1020.72 1020.28 1019.87 1019.35 1018.66 1018.21 1017.88 1017.65 1017.35 1016.88 1016.53 1016.36 1016.07 1015.92 1015.79 1015.53 1015.45 1015.36 1015.35 1015.34 1015.32 1015.41 1015.25 1013.92 1012.13 1011.87 1011.55 1011.26 1011.13 1010.85 1010.41 1010.04 1010.08 1010.04 1009.69 1009.33 1009.54 1009.18 1008.45 1008.16 1008.00 1007.92 1007.67 1007.28 1007.88
1021.38 1020.89 1020.60 1020.22 1019.70 1019.15 1018.69 1018.31 1018.04 1017.71 1017.30 1016.93 1016.69 1016.34 1016.05 1015.83 1015.78 1015.69 1015.57 1015.46 1015.31 1015.06 1014.68 1014.22 1012.91 1012.34 1011.98 1011.86 1011.82 1011.52 1011.16 1010.92 1010.42 1009.99 1009.56 1009.53 1009.25 1009.19 1009.08 1009.45 1009.44 1009.35 1009.05 1008.62 1007.85 1007.66 1007.98
1021.49 1021.22 1020.86 1020.43 1019.97 1019.45 1018.98 1018.49 1018.09 1017.68 1017.26 1016.93 1016.63 1016.38 1016.17 1015.93 1015.75 1015.74 1015.35 1015.11 1015.16 1014.54 1013.21 1013.07 1012.47 1012.12 1011.97 1011.92 1011.82 1011.40 1011.33 1010.65 1010.12 1009.83 1009.39 1009.28 1009.31 1009.72 1010.30 1010.49 1010.38 1009.94 1009.32 1008.66 1008.19 1008.10 1007.97
1021.54 1021.43 1021.13 1020.64 1020.21 1019.79 1019.22 1018.62 1018.09 1017.72 1017.42 1017.14 1016.86 1016.55 1016.28 1016.03 1015.75 1015.75 1015.61 1014.37 1014.58 1014.69 1013.72 1013.09 1012.75 1012.56 1012.52 1012.38 1011.52 1011.40 1011.55 1010.61 1010.33 1009.80 1009.71 1009.36 1009.81 1010.83 1010.96 1010.63 1010.72 1010.18 1009.54 1009.35 1009.20 1008.85 1008.46
1021.59 1021.50 1021.17 1020.84 1020.51 1020.04 1019.53 1019.02 1018.51 1018.03 1017.68 1017.35 1016.96 1016.66 1016.32 1015.97 1015.70 1015.61 1014.96 1014.95 1014.72 1014.48 1013.54 1013.17 1012.91 1012.58 1012.68 1012.50 1012.13 1012.08 1012.13 1011.50 1010.75 1010.22 1010.31 1010.16 1010.88 1011.14 1011.14 1010.88 1011.21 1010.76 1010.46 1010.48 1010.22 1009.30 1007.43
1021.71 1021.62 1021.22 1020.94 1020.61 1020.26 1019.82 1019.34 1018.83 1018.31 1017.84 1017.40 1017.03 1016.69 1016.37 1016.02 1016.05 1014.84 1014.92 1015.13 1014.93 1014.93 1013.61 1012.91 1012.39 1012.42 1012.32 1012.34 1012.20 1012.50 1012.47 1012.29 1011.09 1011.10 1011.12 1010.87 1011.35 1011.58 1011.40 1011.20 1011.82 1011.23 1011.03 1011.10 1010.50 1009.80 1008.61
1021.67 1021.57 1021.34 1021.13 1020.86 1020.52 1020.03 1019.47 1018.83 1018.33 1017.99 1017.63 1017.16 1016.67 1016.28 1016.13 1015.32 1014.78 1015.61 1015.26 1015.08 1014.97 1013.60 1013.41 1012.50 1012.75 1012.40 1012.40 1012.59 1012.24 1012.52 1012.16 1011.91 1011.79 1011.84 1011.71 1011.72 1011.95 1011.62 1011.99 1012.29 1011.91 1011.80 1011.04 1010.08 1009.62 1009.12
1021.58 1021.57 1021.36 1021.16 1021.03 1020.71 1020.29 1019.79 1019.17 1018.55 1017.98 1017.58 1017.22 1016.75 1016.21 1015.55 1015.53 1015.88 1015.68 1015.47 1015.17 1014.84 1013.57 1013.24 1012.81 1012.66 1012.42 1012.67 1012.74 1012.42 1012.35 1012.54 1012.61 1012.34 1012.05 1011.95 1012.44 1012.44 1012.63 1012.56 1012.15 1012.26 1011.40 1010.17 1009.21 1010.03 1009.55
1021.45 1021.36 1021.19 1020.97 1020.84 1020.66 1020.32 1019.70 1019.13 1018.72 1018.21 1017.77 1017.34 1016.81 1015.97 1015.76 1015.91 1016.07 1015.87 1015.36 1014.87 1013.93 1013.94 1013.36 1013.12 1013.09 1013.05 1013.00 1012.91 1013.04 1012.88 1012.96 1013.17 1012.92 1012.18 1011.81 1011.99 1012.70 1013.25 1012.77 1012.17 1012.53 1012.25 1011.38 1010.98 1010.60 1010.12
1021.60 1021.53 1021.41 1021.16 1020.96 1020.72 1020.35 1019.82 1019.42 1019.05 1018.46 1017.93 1017.38 1017.16 1016.52 1016.36 1016.34 1016.21 1015.82 1015.18 1014.73 1014.41 1013.74 1014.12 1013.81 1013.65 1013.28 1013.85 1013.56 1013.48 1013.13 1013.16 1014.22 1014.35 1013.44 1012.96 1012.65 1013.09 1013.53 1013.74 1013.74 1013.34 1013.58 1013.53 1013.47 1012.97 1012.29
1021.69 1021.70 1021.51 1021.30 1021.06 1020.86 1020.51 1020.09 1019.64 1018.97 1018.44 1017.98 1017.55 1016.43 1016.21 1016.73 1016.58 1016.33 1015.73 1015.08 1014.96 1014.56 1014.76 1014.31 1014.03 1013.75 1013.60 1014.22 1014.50 1013.94 1014.23 1014.68 1015.58 1015.81 1015.51 1014.75 1013.65 1013.65 1014.05 1014.31 1014.56 1013.69 1013.82 1014.51 1014.76 1014.63 1014.23
1021.66 1021.72 1021.61 1021.47 1021.28 1021.03 1020.68 1020.24 1019.68 1019.10 1018.55 1018.08 1017.16 1015.96 1016.61 1016.80 1016.64 1016.36 1015.56 1015.55 1015.23 1015.76 1015.35 1014.97 1014.36 1014.70 1014.21 1014.51 1014.58 1014.51 1014.84 1016.00 1016.20 1016.77 1016.83 1016.14 1015.77 1014.56 1014.34 1014.18 1013.86 1014.42 1014.71 1014.94 1015.52 1015.37 1014.28
1021.64 1021.68 1021.74 1021.64 1021.47 1021.15 1020.81 1020.32 1019.79 1019.16 1018.36 1017.97 1017.20 1015.84 1016.84 1016.60 1016.65 1015.96 1015.50 1015.76 1016.14 1016.42 1016.12 1015.75 1015.29 1015.16 1015.47 1015.59 1015.60 1015.43 1015.76 1016.67 1017.07 1017.16 1017.19 1016.90 1017.12 1015.99 1015.51 1013.85 1014.00 1014.41 1014.68 1014.96 1015.19 1015.72 1015.19
1021.59 1021.70 1021.79 1021.70 1021.57 1021.28 1021.00 1020.49 1020.06 1019.47 1018.04 1017.73 1016.76 1015.85 1016.75 1016.61 1016.16 1016.06 1015.93 1016.16 1016.85 1016.48 1016.43 1016.35 1016.27 1016.31 1016.43 1016.50 1016.45 1016.41 1016.68 1017.19 1017.94 1018.00 1017.67 1018.25 1018.31 1017.45 1015.88 1014.61 1014.38 1014.71 1014.76 1015.07 1015.71 1016.03 1015.87
1021.55 1021.79 1021.89 1021.80 1021.62 1021.38 1021.12 1020.68 1020.32 1019.96 1019.56 1018.66 1016.64 1016.35 1016.54 1016.55 1016.44 1016.49 1016.68 1016.91 1016.83 1016.61 1016.86 1016.66 1016.91 1017.24 1017.32 1017.23 1017.46 1017.41 1017.62 1018.23 1018.46 1018.53 1019.01 1019.36 1018.80 1017.99 1016.13 1015.16 1015.28 1015.27 1015.33 1015.28 1015.56 1015.77 1015.56
1021.43 1021.79 1021.93 1021.89 1021.73 1021.54 1021.27 1020.89 1020.50 1020.10 1019.83 1019.23 1017.24 1017.03 1016.61 1016.29 1016.12 1016.22 1016.46 1016.72 1017.33 1017.72 1017.54 1017.44 1017.46 1017.63 1017.63 1017.72 1017.81 1018.09 1017.97 1018.19 1018.71 1019.06 1019.75 1020.25 1020.01 1019.65 1018.85 1017.72 1017.14 1016.47 1016.09 1015.68 1015.52 1015.21 1014.05
1021.29 1021.68 1021.88 1021.86 1021.80 1021.73 1021.44 1021.09 1020.67 1020.15 1019.65 1019.36 1017.50 1017.59 1017.67 1017.32 1016.91 1016.69 1016.88 1017.00 1017.09 1017.41 1017.84 1017.88 1017.75 1017.97 1018.17 1018.57 1018.87 1018.50 1018.41 1018.48 1018.61 1019.14 1019.54 1020.17 1020.44 1020.33 1019.69 1018.96 1018.49 1017.79 1016.60 1015.52 1014.81 1014.25 1013.81
1021.06 1021.45 1021.71 1021.81 1021.87 1021.80 1021.59 1021.32 1020.97 1020.34 1019.52 1018.75 1018.47 1017.94 1018.00 1017.97 1017.78 1017.38 1017.97 1017.30 1017.25 1017.57 1017.91 1017.79 1018.25 1018.20 1018.66 1018.85 1019.05 1019.08 1019.18 1019.36 1019.35 1019.22 1019.42 1020.10 1020.77 1021.20 1020.80 1020.09 1019.12 1017.75 1016.57 1015.01 1014.30 1013.67 1012.69
1020.75 1021.21 1021.56 1021.70 1021.83 1021.87 1021.74 1021.61 1021.30 1020.78 1020.06 1018.63 1018.83 1018.75 1018.82 1019.16 1018.73 1018.44 1018.15 1017.74 1017.73 1018.14 1018.56 1018.54 1018.67 1018.78 1019.16 1019.50 1019.77 1019.95 1020.21 1020.13 1019.86 1019.77 1019.83 1020.51 1021.40 1022.22 1021.29 1020.65 1019.68 1018.13 1015.46 1014.30 1013.56 1012.97 1012.14
1020.32 1020.76 1021.25 1021.59 1021.75 1021.82 1021.90 1021.85 1021.61 1021.30 1021.11 1020.06 1019.74 1019.30 1019.93 1019.99 1019.57 1018.90 1018.39 1018.27 1018.17 1018.31 1018.65 1018.72 1018.96 1019.30 1019.58 1019.74 1020.30 1020.53 1020.58 1020.09 1019.64 1019.20 1019.48 1020.11 1021.64 1022.42 1022.19 1021.51 1019.27 1015.85 1014.42 1013.85 1013.06 1012.50 1012.17
1020.07 1020.31 1020.72 1021.24 1021.57 1021.72 1021.84 1021.84 1021.79 1021.60 1021.44 1020.71 1020.17 1019.83 1020.48 1020.66 1019.98 1019.35 1018.89 1018.64 1018.53 1018.65 1018.87 1018.96 1019.11 1019.68 1020.09 1020.48 1021.61 1022.24 1021.68 1021.45 1019.90 1018.74 1019.01 1019.56 1021.59 1022.68 1022.66 1020.81 1017.77 1016.49 1014.41 1013.69 1013.04 1012.44 1012.58
1019.82 1020.12 1020.30 1020.77 1021.29 1021.54 1021.72 1021.81 1021.99 1021.96 1021.79 1021.24 1020.34 1020.34 1020.43 1020.94 1020.09 1019.43 1018.93 1018.71 1018.76 1019.02 1019.28 1019.26 1019.44 1019.93 1020.74 1021.58 1022.98 1023.44 1022.73 1021.79 1020.42 1019.67 1019.95 1021.02 1022.04 1022.70 1022.21 1020.56 1017.38 1015.20 1014.21 1013.59 1013.04 1012.73 1013.57
1019.39 1019.80 1020.08 1020.42 1020.90 1021.24 1021.59 1021.77 1021.99 1022.19 1022.27 1021.86 1020.72 1020.51 1020.46 1020.92 1020.24 1019.69 1019.09 1018.90 1018.88 1019.03 1019.41 1019.77 1020.14 1020.96 1021.36 1022.64 1023.79 1024.08 1023.11 1021.88 1021.05 1020.65 1020.84 1021.65 1022.39 1022.42 1021.30 1019.80 1016.58 1014.72 1013.65 1013.46 1014.19 1014.84 1014.99
1018.89 1019.35 1019.75 1020.02 1020.48 1020.66 1021.18 1021.60 1021.82 1022.19 1022.59 1022.44 1020.97 1020.60 1020.82 1020.82 1020.13 1019.65 1019.54 1019.14 1018.92 1019.15 1019.55 1019.96 1020.70 1020.92 1022.11 1023.18 1023.95 1023.89 1023.42 1022.31 1021.44 1020.85 1020.69 1021.12 1021.58 1021.26 1020.19 1018.71 1015.65 1013.80 1013.60 1014.87 1014.56 1014.09 1014.34
1018.24 1018.99 1019.12 1019.70 1020.02 1020.20 1020.62 1021.09 1021.54 1021.88 1022.36 1022.76 1021.84 1021.00 1021.01 1021.44 1020.53 1020.21 1019.82 1019.33 1019.28 1019.12 1019.55 1019.88 1020.42 1020.53 1021.38 1022.37 1023.37 1023.81 1023.56 1022.75 1021.89 1020.84 1020.78 1020.39 1020.06 1019.32 1018.63 1016.65 1014.75 1014.16 1014.31 1013.91 1014.34 1014.25 1014.14
Wind_Speed
9 10 11 11 12 12 13 11 10 9 8 7 6 6 6 6 8 8 8 8 9 9 10 9 10 9 6 4 7 7 7 11 12 11 7 5 6 8 7 3 3 6 3 2 3 3 2
10 10 10 11 13 13 13 13 12 10 8 7 6 6 5 5 6 8 8 8 8 9 9 7 6 8 5 7 7 4 6 6 8 8 8 10 8 7 5 7 8 4 4 2 2 3 6
9 10 11 12 12 13 14 12 11 10 10 9 8 7 7 6 6 6 7 7 8 9 10 7 5 6 3 5 1 6 1 4 5 9 9 9 7 6 6 1 4 4 9 13 8 2 9
9 10 12 12 13 13 12 13 14 13 11 9 9 7 5 5 5 5 6 7 8 10 11 7 3 5 4 2 10 6 10 5 3 5 7 6 3 1 5 1 6 12 7 7 5 3 3
10 10 11 12 12 13 14 14 14 15 13 11 10 8 8 8 7 6 5 7 9 10 9 6 6 7 7 5 1 8 4 7 6 4 2 5 7 4 5 11 10 2 10 11 8 5 2
10 11 12 13 14 15 15 15 15 14 13 12 11 10 9 7 5 3 4 6 2 7 7 9 12 2 2 3 4 9 7 6 7 9 10 5 6 8 9 11 9 11 10 11 12 9 9
10 11 11 12 14 15 16 16 16 15 14 13 12 11 9 7 4 3 7 5 5 4 6 10 8 6 5 1 8 8 10 7 6 8 5 6 7 9 9 8 9 11 13 15 15 8 16
8 9 10 12 14 14 16 17 17 17 15 13 11 10 9 8 6 4 3 5 6 6 3 3 4 5 2 6 5 12 13 5 5 7 6 7 6 6 6 6 9 15 14 12 12 17 16
8 9 10 11 13 14 15 16 16 16 15 13 12 11 10 8 7 3 6 7 5 9 5 3 2 4 3 7 4 10 11 9 5 5 5 6 7 5 6 6 10 14 8 13 17 18 15
7 8 10 11 12 13 14 15 15 16 15 14 13 11 9 6 2 2 3 6 6 4 5 6 3 4 3 3 1 3 7 5 3 6 6 5 3 5 8 6 10 11 13 16 17 14 10
5 6 8 10 11 12 13 14 16 16 15 13 13 12 8 1 4 1 4 5 5 3 2 2 5 4 2 4 7 4 3 4 5 7 4 5 5 7 10 7 9 11 16 19 20 15 10
5 5 7 9 10 11 12 12 14 15 16 13 12 11 8 3 3 3 4 5 3 5 1 4 1 2 4 4 4 4 3 3 2 5 4 3 1 3 8 11 13 12 17 20 4 0 3
6 8 9 10 11 11 13 14 16 16 16 13 11 12 8 4 3 3 4 4 4 3 1 5 3 2 2 5 2 4 4 10 9 7 4 5 7 5 4 12 10 15 14 5 5 2 5
6 7 8 9 10 11 12 14 16 16 16 13 11 10 5 6 4 3 3 4 3 6 4 3 2 2 4 7 5 5 8 3 15 14 10 6 3 2 6 4 7 14 7 2 4 4 10
4 5 7 8 9 10 11 13 15 17 17 13 8 3 3 5 5 3 4 3 4 7 5 6 3 5 7 3 3 5 6 7 7 12 8 7 2 7 3 3 5 7 4 6 5 10 5
1 5 7 8 8 10 11 12 15 17 17 13 5 2 4 4 3 4 3 4 3 4 4 3 4 3 5 6 6 5 5 7 5 6 8 4 8 9 2 8 12 7 7 4 1 3 7
4 3 5 6 8 9 11 12 14 17 19 6 4 3 3 2 2 4 1 3 5 4 6 6 5 2 3 5 5 5 4 8 8 9 10 6 2 8 13 2 11 3 7 6 8 5 5
5 3 5 5 7 9 10 12 14 17 25 1 3 1 3 2 2 3 2 3 4 4 1 4 4 6 6 5 5 5 5 6 7 9 8 7 4 6 19 17 3 5 8 8 3 8 9
5 5 7 7 5 7 10 12 12 13 14 6 3 3 2 2 2 2 5 4 5 1 4 3 3 4 3 4 3 4 5 4 7 6 7 10 3 6 8 5 3 12 19 18 17 2 8
5 7 7 8 6 7 8 11 13 14 11 4 2 3 3 3 3 6 5 4 4 3 3 2 2 2 2 4 2 5 7 4 1 6 8 1 6 6 8 15 18 19 22 24 20 12 17
6 7 8 6 5 6 8 9 12 14 14 4 3 3 4 2 2 4 3 1 4 3 1 2 1 2 4 4 6 4 5 9 9 4 2 3 6 12 17 19 20 23 25 25 23 21 20
6 6 6 5 6 6 7 9 12 14 20 3 5 3 1 3 3 1 2 1 2 5 3 3 3 4 4 5 3 11 13 11 8 11 5 3 4 3 7 19 20 20 23 25 26 22 22
8 6 5 5 4 5 7 9 11 14 10 3 1 2 3 1 2 1 2 2 1 4 4 3 7 9 6 8 9 11 12 14 16 17 15 14 3 2 8 9 11 11 15 17 14 17 17
11 9 7 5 4 3 3 5 10 12 10 5 4 3 5 1 2 4 3 4 4 4 5 6 6 7 6 7 10 10 11 16 18 19 15 9 4 3 3 3 7 8 21 24 20 16 17
12 11 9 7 6 4 4 5 7 9 10 4 2 1 3 1 5 7 6 7 8 6 6 8 9 6 7 5 4 7 4 4 8 12 8 7 5 2 4 9 18 16 18 13 19 13 16
12 12 11 9 8 6 6 5 6 7 8 3 1 2 2 5 5 10 10 10 5 6 8 10 4 3 2 2 3 2 3 4 3 8 9 9 9 1 3 14 16 2 18 19 12 15 12
13 12 12 10 10 8 7 6 5 6 6 4 3 2 3 1 4 6 6 6 7 5 5 3 1 0 4 3 2 4 5 8 5 3 4 3 3 6 11 11 11 14 15 12 7 5 17
13 13 13 12 12 11 9 8 7 5 5 3 4 3 3 2 7 8 9 11 8 4 3 1 3 2 2 3 3 4 4 4 5 8 7 8 6 5 5 6 12 4 11 5 14 17 19
11 12 12 12 12 11 11 11 10 9 6 3 4 1 3 3 5 5 9 11 11 14 8 3 5 4 5 3 4 3 3 2 2 9 14 6 8 8 11 8 21 24 25 16 25 20 19
Wind_Direction
346 344 349 347 342 344 346 355 352 346 340 332 326 309 295 281 263 263 270 269 277 286 287 300 317 335 282 113 46 107 266 255 247 257 0 348 358 334 41 39 9 50 72 344 116 218 294
346 343 347 346 346 349 353 356 358 353 352 350 333 332 316 289 279 265 259 262 271 277 285 290 298 302 265 78 293 49 337 339 4 5 44 16 12 349 17 12 7 29 322 6 266 300 279
349 343 347 349 348 351 353 351 357 359 0 355 351 348 342 317 292 278 263 266 278 283 282 294 329 288 67 90 100 326 163 12 21 9 28 26 340 320 322 239 335 306 261 203 195 289 294
353 357 354 351 351 350 351 356 3 2 1 358 357 354 341 343 335 313 288 277 272 274 283 287 282 263 68 10 332 18 335 108 22 9 12 10 303 305 279 205 237 252 227 342 83 110 152
352 2 359 357 350 352 357 0 4 2 358 358 0 354 3 3 2 339 272 265 258 263 258 291 238 214 110 162 302 341 23 347 307 274 278 264 276 275 207 239 236 258 0 358 316 218 5
356 358 360 359 356 358 358 359 0 1 0 358 356 358 2 6 6 343 305 271 322 288 220 239 258 221 121 23 352 290 354 296 304 291 241 252 259 234 43 4 17 346 336 319 306 19 342
359 1 1 3 1 358 357 357 358 1 2 359 355 354 353 356 346 296 306 238 215 190 28 18 40 74 55 65 253 19 346 292 277 246 350 319 296 34 4 4 334 313 299 314 358 352 323
2 1 4 7 4 1 0 357 357 0 358 355 351 346 345 333 326 356 286 294 45 357 106 75 124 96 21 315 297 31 341 332 322 330 332 255 78 40 328 314 342 315 320 349 321 334 311
9 359 10 13 6 4 2 358 356 356 356 352 348 343 338 320 321 287 45 44 353 354 249 133 12 52 2 309 29 2 358 317 320 294 4 315 53 345 320 318 350 328 5 336 320 322 301
11 7 12 11 8 3 356 356 355 357 356 351 345 338 329 319 305 219 73 358 4 345 258 123 178 98 359 338 181 0 2 340 219 358 330 17 66 328 306 308 0 312 9 325 309 320 326
19 9 18 17 11 4 355 351 351 352 356 351 341 333 318 275 322 223 39 342 337 247 247 99 89 3 6 33 328 82 56 249 359 347 304 75 326 336 307 21 330 301 320 292 286 281 314
19 14 21 22 12 4 353 349 348 349 350 347 336 324 318 254 64 31 348 310 272 234 119 125 1 359 236 48 31 337 33 216 290 302 251 320 83 308 359 314 291 297 311 304 263 133 279
19 15 8 14 7 0 352 349 350 349 344 340 328 326 353 19 47 344 302 250 244 279 163 121 61 356 330 31 44 7 350 43 34 332 301 292 161 108 336 323 322 352 342 335 346 205 244
15 9 359 8 1 355 352 350 345 342 341 329 313 321 55 47 17 345 257 234 271 358 50 52 348 243 354 1 106 330 321 115 43 354 310 340 290 14 41 12 319 303 340 306 307 318 316
14 354 353 357 358 351 350 345 342 343 343 330 317 210 60 19 331 299 248 224 66 5 1 342 213 267 133 126 300 309 74 33 54 24 2 342 352 3 63 340 327 346 326 348 293 245 267
296 345 350 348 351 347 346 345 347 344 339 341 282 234 45 331 337 267 262 338 53 29 331 266 315 8 345 40 327 15 30 36 41 56 350 14 295 306 313 266 231 243 344 320 154 283 294
255 338 339 340 339 345 344 346 347 341 335 344 260 220 12 324 309 244 244 73 95 53 0 342 11 331 20 1 340 344 48 88 32 0 321 353 274 301 326 234 345 298 278 249 247 293 277
243 271 311 323 332 342 341 349 348 347 336 198 293 109 11 262 216 320 68 40 299 82 92 58 27 32 7 0 340 1 351 41 1 336 336 64 287 289 288 276 335 279 278 290 258 284 291
229 261 292 306 323 340 339 345 346 347 9 317 318 73 166 250 105 99 136 90 27 142 35 42 78 25 12 5 348 26 1 93 346 336 28 359 314 308 336 125 174 325 315 307 301 253 246
215 249 274 296 316 334 337 341 341 339 343 300 300 28 18 347 293 142 146 152 112 25 65 44 63 273 340 339 84 316 317 80 211 274 131 67 268 280 280 293 304 310 313 309 302 290 292
211 242 269 287 306 324 334 340 338 334 336 300 8 48 5 105 52 64 35 333 144 154 70 310 151 346 6 36 342 301 322 332 321 135 185 225 259 273 284 295 309 303 290 285 282 287 287
198 215 247 274 300 319 336 341 338 338 334 263 343 344 106 29 341 197 69 26 287 114 325 105 317 348 319 298 283 317 335 331 309 296 257 177 246 281 274 290 293 305 302 287 288 288 281
195 206 230 257 290 316 342 348 345 346 337 333 84 150 352 345 44 29 217 280 332 39 99 339 344 332 347 334 340 336 311 292 281 282 277 274 201 167 279 300 331 288 257 267 271 298 289
191 190 205 229 250 281 330 335 345 349 1 319 34 322 81 238 238 234 246 271 260 239 283 337 327 308 315 321 313 322 306 287 283 277 271 259 128 139 286 332 236 251 317 309 298 303 303
198 193 195 212 224 235 255 298 327 339 353 311 21 278 116 201 246 279 266 287 289 262 261 268 278 56 3 326 20 341 299 348 281 238 245 248 137 187 257 257 283 287 274 327 313 299 300
201 203 197 202 216 217 224 250 287 312 343 301 312 339 110 123 244 251 274 270 247 256 284 279 277 14 329 83 97 217 277 294 297 332 65 50 68 295 280 286 294 326 313 295 306 278 19
198 201 199 199 205 210 220 217 234 287 318 308 349 269 278 146 269 258 247 261 262 271 287 323 209 306 284 91 147 234 239 256 262 205 280 50 321 247 258 267 270 280 290 4 289 334 305
192 195 200 199 204 199 205 208 197 231 289 294 306 265 279 222 275 265 256 263 270 252 253 234 358 225 66 165 194 228 229 246 271 271 281 298 296 254 237 244 279 266 338 334 307 311 333
188 199 196 201 204 200 197 197 196 192 198 234 279 314 302 240 295 350 300 286 282 279 302 277 219 268 173 180 201 230 251 217 264 273 264 255 216 263 258 271 289 304 302 324 318 324 323